Weather History for Bonaire, Bonaire

Change the Weather History Date:

Saturday, January 12, 2013

  Actual Average Record
Temperature  
Mean Temperature 78 °F -  
Max Temperature 84 °F 84 °F 87 °F (1997)
Min Temperature 71 °F 77 °F 71 °F (2013)
Cooling Degree Days 12    
Growing Degree Days 28 (Base 50)    
Moisture  
Dew Point 71 °F    
Average Humidity 81    
Maximum Humidity 100    
Minimum Humidity 62    
Precipitation  
Precipitation 0.08 in - - ()
Sea Level Pressure  
Sea Level Pressure 29.91 in    
Wind  
Wind Speed 10 mph ()    
Max Wind Speed 18 mph    
Max Gust Speed 26 mph    
Visibility 8.3 miles    
Events Rain    
Averages and records for this station are not official NWS values.
T = Trace of Precipitation, MM = Missing Value Source: Averaged Metar Reports

Daily Weather History Graph

Daily Weather History Graph

Search for Another Location

Airport:

Trip Planner

Search our weather history database for the weather conditions in past years. The results will help you decide how hot, cold, wet, or windy it might be!

Date:

Astronomy

Jan. 12, 2013 Rise Set
Actual Time 6:57 AM AST 6:25 PM AST
Civil Twilight 6:34 AM AST 6:48 PM AST
Nautical Twilight 6:08 AM AST 7:14 PM AST
Astronomical Twilight 5:42 AM AST 7:40 PM AST
Moon 7:29 AM AST (1/12) 7:30 PM AST (1/12)
Length of Visible Light 12h 14m
Length of Day
11h 28m
New Moon, 1% of the Moon is Illuminated
Jan 12
New Moon
Jan 18
First Quarter
Jan 27
Full
Feb 3
Last Quarter
Feb 10
New

Hourly Weather History & Observations

Time (AST) Temp. Heat Index Dew Point Humidity Pressure Visibility Wind Dir Wind Speed Gust Speed Precip Events Conditions
12:00 AM 78.8 °F - 71.6 °F 78% 29.92 in - East 9.2 mph - N/A   Unknown
1:00 AM 75.2 °F - 73.4 °F 94% 29.92 in - East 6.9 mph - N/A   Unknown
2:00 AM 73 °F - 72 °F 96%  in - ESE 13.8 mph - -   Clear
2:00 AM 73.4 °F - 73.4 °F 100% 29.92 in - East 10.4 mph - N/A   Unknown
3:00 AM 73.4 °F - 71.6 °F 94% 29.89 in - East 12.7 mph - N/A   Unknown
4:00 AM 73.4 °F - 71.6 °F 94% 29.89 in - ESE 16.1 mph - N/A   Unknown
5:00 AM 72 °F - 71 °F 94%  in - East 4.6 mph - -   Clear
5:00 AM 71.6 °F - 71.6 °F 100% 29.89 in - East 4.6 mph - N/A Rain Light Rain
6:00 AM 71.6 °F - 71.6 °F 100% 29.89 in - East 5.8 mph - N/A   Unknown
7:00 AM 73.4 °F - 71.6 °F 94% 29.89 in - SE 4.6 mph - N/A   Unknown
8:00 AM 73 °F - 71 °F 92%  in - ESE 10.4 mph - -   Clear
8:00 AM 73.4 °F - 71.6 °F 94% 29.92 in - ESE 10.4 mph - N/A   Unknown
9:00 AM 78.8 °F - 75.2 °F 89% 29.95 in 6.2 mi East 8.1 mph - N/A   Mostly Cloudy
10:00 AM 77.0 °F - 71.6 °F 83% 29.95 in 6.2 mi ENE 15.0 mph 26.5 mph N/A Rain Light Rain
11:00 AM 82 °F - 72 °F 65% 29.94 in 16 mi East 17.3 mph - - Rain Light Rain Showers
11:00 AM 82.4 °F 87.2 °F 71.6 °F 70% 29.92 in 6.2 mi East 17.3 mph - N/A   Scattered Clouds
12:00 PM 82.4 °F 88.2 °F 73.4 °F 74% 29.92 in 6.2 mi East 17.3 mph - N/A   Scattered Clouds
1:00 PM 84.2 °F 89.6 °F 71.6 °F 66% 29.89 in 6.2 mi East 15.0 mph - N/A   Scattered Clouds
2:00 PM 84.2 °F 89.6 °F 71.6 °F 66% 29.86 in - East 18.4 mph - N/A   Unknown
3:00 PM 84.2 °F 88.4 °F 69.8 °F 62% 29.86 in 6.2 mi ESE 17.3 mph - N/A   Scattered Clouds
4:00 PM 84.2 °F 88.4 °F 69.8 °F 62% 29.86 in 6.2 mi ESE 13.8 mph - N/A   Scattered Clouds
5:00 PM 84.2 °F 88.4 °F 69.8 °F 62% 29.89 in 6.2 mi East 12.7 mph - N/A   Partly Cloudy
6:00 PM 80.6 °F 83.9 °F 69.8 °F 70% 29.89 in - East 10.4 mph - N/A   Unknown
7:00 PM 78.8 °F - 69.8 °F 74% 29.89 in - East 8.1 mph - N/A   Unknown
8:00 PM 78 °F - 69 °F 67% 29.93 in 19 mi East 6.9 mph - -   Scattered Clouds
8:00 PM 78.8 °F - 69.8 °F 74% 29.92 in 6.2 mi East 8.1 mph - N/A   Partly Cloudy
9:00 PM 77.0 °F - 69.8 °F 78% 29.92 in - East 8.1 mph - N/A   Unknown
11:00 PM 77.0 °F - 69.8 °F 78% 29.92 in - East 8.1 mph - N/A   Unknown